Weather in Beruwala

Sri Lanka     6°27′21″N   79°59′55″E
В апреле 2022 года жителям России запретили посещать сайт meteo.paraplan.net по решению Генеральной прокуратуры. Аудитория сайта уменьшилась в 10 раз. Владельцы сайта не видят смысла в поддержке погодного сервера в таких условиях. Сайт будет закрыт в октябре.
temp.,
°C
wind,
m/s
gust,
m/s
humid.,
%
clouds,
%
prec.,
mm/h
press.,
hPa
HPBL,
m
6 october, thu
thu623:30+25wsw3689100 6.1 1010377
02:30+25wsw4889100 4.3 1008478
05:30+25wsw4789100 6.4 1008424
08:30+26wsw5884100 2.1 1010773
11:30+27w587995 3.0 1009944
14:30+27w587784 0.9 1007937
17:30+26w4785100 1.9 1008468
20:30+25w3588100 0.9 1010350
7 october, fri
fri723:30+25w2588100 2.2 1010361
02:30+25w358953 2.3 1007372
05:30+24w348823 5.1 1009350
08:30+26w468317 2.1 1011653
11:30+27w578131 4.1 1009863
14:30+27w6878100 1.2 10071012
17:30+26w478699 3.4 1008561
20:30+25w4889100 2.8 1010492
8 october, sat
sat823:30+25w4889100 5.3 1010479
02:30+25w588761 1.5 1008531
05:30+25w4887100 2.6 1009512
08:30+26w578198 1.1 1010780
11:30+27w57755 2.6 1010938
14:30+27w6876100 1.4 1007965
17:30+26w4683100 2.1 1008548
20:30+26w36885 0.4 1010393
9 october, sun
sun923:30+25w36875 0.7 1010359
02:30+25w35878 0.3 1008381
05:30+25w45887 1.4 1009346
08:30+27w57804 1.9 1011754
11:30+28w56765 3.2 1010953
14:30+28w467610 0.3 1008809
17:30+26w358314 0.6 1009552
20:30+25w248736 0.6 1011265
10 october, mon
mon1023:30+25wsw24895 2.3 1011302
02:30+25wsw248757 1.8 1009326
05:30+25wsw238817 2.7 1010327
08:30+27w348041 0.7 1011670
11:30+28wsw457414 1.2 1011888
14:30+28w45738 0.1 1008861
17:30+26wsw35818 0.3 1009569
20:30+26sw248616 0.4 1011298